TimeGMT,TemperatureF,Dew PointF,Humidity,Sea Level PressureIn,VisibilityMPH,Wind Direction,Wind SpeedMPH,Gust SpeedMPH,PrecipitationIn,Events,Conditions,WindDirDegrees,DateUTC
12:00 AM,31,31,100,29.38,11,NW,8.9,,,,Partly Cloudy,310,2013-01-22 00:00:00
12:00 AM,30.2,30.2,100,29.33,6.2,NW,9.2,-,N/A,,Mostly Cloudy,310,2013-01-22 00:00:00
12:30 AM,30.2,30.2,100,29.36,6.2,WNW,5.8,-,N/A,,Mostly Cloudy,300,2013-01-22 00:30:00
1:00 AM,32.0,30.2,93,29.33,6.2,North,4.6,-,N/A,,Mostly Cloudy,350,2013-01-22 01:00:00
1:30 AM,32.0,30.2,93,29.33,6.2,North,3.5,-,N/A,,Mostly Cloudy,360,2013-01-22 01:30:00
2:00 AM,32.0,30.2,93,29.36,6.2,NNW,4.6,-,N/A,,Mostly Cloudy,340,2013-01-22 02:00:00
2:30 AM,32.0,30.2,93,29.36,6.2,North,4.6,-,N/A,,Mostly Cloudy,350,2013-01-22 02:30:00
3:00 AM,32.0,30.2,93,29.36,6.2,NW,8.1,-,N/A,,Mostly Cloudy,310,2013-01-22 03:00:00
3:30 AM,32.0,30.2,93,29.36,6.2,NNW,4.6,-,N/A,,Mostly Cloudy,330,2013-01-22 03:30:00
4:00 AM,32.0,28.4,87,29.36,6.2,NW,5.8,-,N/A,,Scattered Clouds,320,2013-01-22 04:00:00
4:30 AM,32.0,30.2,93,29.39,6.2,NW,5.8,-,N/A,,Partly Cloudy,310,2013-01-22 04:30:00
5:00 AM,30.2,28.4,93,29.39,6.2,WNW,8.1,-,N/A,,Partly Cloudy,300,2013-01-22 05:00:00
5:30 AM,30.2,30.2,100,29.39,6.2,NW,6.9,-,N/A,,Partly Cloudy,320,2013-01-22 05:30:00
6:00 AM,30,29,94,29.43,16,North,6.7,,,,Scattered Clouds,350,2013-01-22 06:00:00
6:00 AM,30.2,28.4,93,29.39,6.2,North,6.9,-,N/A,,Partly Cloudy,350,2013-01-22 06:00:00
6:30 AM,30.2,28.4,93,29.42,6.2,NW,9.2,-,N/A,,Partly Cloudy,320,2013-01-22 06:30:00
7:00 AM,30.2,28.4,93,29.42,6.2,NNW,12.7,-,N/A,,Partly Cloudy,330,2013-01-22 07:00:00
7:30 AM,28.4,28.4,100,29.42,6.2,NNW,10.4,-,N/A,,Partly Cloudy,340,2013-01-22 07:30:00
8:00 AM,28.4,28.4,100,29.44,6.2,NNW,12.7,-,N/A,,Partly Cloudy,340,2013-01-22 08:00:00
8:30 AM,30.2,28.4,93,29.44,6.2,North,9.2,-,N/A,,Partly Cloudy,350,2013-01-22 08:30:00
9:00 AM,30.2,30.2,100,29.47,6.2,NNW,10.4,-,N/A,,Partly Cloudy,330,2013-01-22 09:00:00
9:30 AM,30.2,28.4,93,29.47,6.2,NNW,11.5,-,N/A,,Partly Cloudy,330,2013-01-22 09:30:00
10:00 AM,30.2,30.2,100,29.50,6.2,NNW,9.2,-,N/A,,Partly Cloudy,340,2013-01-22 10:00:00
10:30 AM,32.0,30.2,93,29.50,6.2,NNW,5.8,-,N/A,,Partly Cloudy,340,2013-01-22 10:30:00
11:00 AM,32.0,30.2,93,29.53,6.2,NW,5.8,-,N/A,,Partly Cloudy,320,2013-01-22 11:00:00
11:30 AM,33.8,30.2,87,29.53,6.2,NW,4.6,-,N/A,,Partly Cloudy,310,2013-01-22 11:30:00
12:00 PM,34,31,86,29.57,16,NW,6.7,,,,Scattered Clouds,310,2013-01-22 12:00:00
12:00 PM,33.8,32.0,93,29.53,6.2,NW,6.9,-,N/A,,Partly Cloudy,310,2013-01-22 12:00:00
12:30 PM,35.6,32.0,87,29.53,6.2,NW,8.1,-,N/A,,Partly Cloudy,310,2013-01-22 12:30:00
1:00 PM,37.4,32.0,81,29.53,6.2,NNW,8.1,-,N/A,,Partly Cloudy,330,2013-01-22 13:00:00
1:30 PM,37.4,32.0,81,29.56,6.2,NNW,9.2,-,N/A,,Partly Cloudy,330,2013-01-22 13:30:00
2:00 PM,39.2,32.0,75,29.56,6.2,NW,9.2,-,N/A,,Partly Cloudy,320,2013-01-22 14:00:00
2:30 PM,39.2,32.0,75,29.56,6.2,NW,9.2,-,N/A,,Partly Cloudy,320,2013-01-22 14:30:00
3:00 PM,39.2,30.2,70,29.56,6.2,NW,12.7,-,N/A,,Partly Cloudy,320,2013-01-22 15:00:00
3:30 PM,39.2,30.2,70,29.59,6.2,NW,10.4,-,N/A,,Partly Cloudy,320,2013-01-22 15:30:00
4:00 PM,39.2,30.2,70,29.59,6.2,NW,10.4,-,N/A,,Partly Cloudy,310,2013-01-22 16:00:00
4:30 PM,37.4,30.2,75,29.62,6.2,NW,9.2,-,N/A,,Partly Cloudy,320,2013-01-22 16:30:00
5:00 PM,37.4,32.0,81,29.62,6.2,NW,9.2,-,N/A,,Partly Cloudy,310,2013-01-22 17:00:00
5:30 PM,35.6,32.0,87,29.62,6.2,NW,9.2,-,N/A,,Partly Cloudy,320,2013-01-22 17:30:00
6:00 PM,35,32,85,29.68,19,NNW,4.5,,,,Scattered Clouds,330,2013-01-22 18:00:00
6:00 PM,35.6,32.0,87,29.65,6.2,NNW,4.6,-,N/A,,Partly Cloudy,330,2013-01-22 18:00:00
6:30 PM,35.6,32.0,87,29.65,6.2,North,2.3,-,N/A,,Partly Cloudy,350,2013-01-22 18:30:00
7:00 PM,33.8,32.0,93,29.65,6.2,West,2.3,-,N/A,,Partly Cloudy,270,2013-01-22 19:00:00
7:30 PM,33.8,32.0,93,29.68,6.2,NW,4.6,-,N/A,,Partly Cloudy,310,2013-01-22 19:30:00
8:00 PM,33.8,32.0,93,29.68,6.2,NW,4.6,-,N/A,,Partly Cloudy,320,2013-01-22 20:00:00
8:30 PM,33.8,32.0,93,29.68,6.2,NNW,3.5,-,N/A,,Partly Cloudy,340,2013-01-22 20:30:00
9:00 PM,33.8,32.0,93,29.68,6.2,North,3.5,-,N/A,,Partly Cloudy,360,2013-01-22 21:00:00
9:30 PM,32.0,32.0,100,29.68,6.2,East,3.5,-,N/A,,Partly Cloudy,100,2013-01-22 21:30:00
10:00 PM,32.0,32.0,100,29.68,6.2,East,4.6,-,N/A,,Scattered Clouds,90,2013-01-22 22:00:00
10:30 PM,33.8,32.0,93,29.71,6.2,ESE,2.3,-,N/A,,Scattered Clouds,110,2013-01-22 22:30:00
11:00 PM,33.8,30.2,87,29.71,6.2,East,3.5,-,N/A,,Scattered Clouds,100,2013-01-22 23:00:00
11:30 PM,33.8,30.2,87,29.71,6.2,East,3.5,-,N/A,,Mostly Cloudy,100,2013-01-22 23:30:00